Location: Alphen
(52.1351°N, 4.6549°E)
Time: 00:53:32
(UTC+00:00)

Cosmos 2219 Rocket - Pass Details

Date: 27 January 2021
Orbit: 828 x 846 km, 71.0° (Epoch: 26 February)

Event Time Altitude Azimuth Distance (km) Brightness Sun altitude
Exits shadow 03:41:41 33° 32° (NNE) 1,374 3.5 -34.6°
Drops below altitude 10° 03:44:39 10° 31° (NNE) 2,446 5.1 -34.1°
Sets 03:47:06 0° 32° (NNE) 3,385 5.9 -33.8°
